Location: Wangen+im+Allg�u
(47.7098°N, 9.8383°E)
Time: 00:57:37
(UTC+02:00)

ISS - Pass Details

Date: 01 June 2018
Orbit: 402 x 406 km, 51.6° (Epoch: 21 June)

Event Time Altitude Azimuth Distance (km) Brightness Sun altitude
Rises 00:46:34 0° 288° (WNW) 2,322 0.4 -19.9°
Reaches altitude 10° 00:48:58 10° 271° (W) 1,458 -0.9 -20.0°
Enters shadow 00:49:33 13° 263° (W) 1,281 -1.3 -20.0°
